Rbgn^[z[y[W
メイン
   新天体発見情報
     Comet P/1889 M1 = 2006 M3 (Barnard 2)
投稿するにはまず登録を

スレッド表示 | 新しいものから 前のトピック | 次のトピック | 下へ
投稿者 スレッド
佐藤裕久
投稿日時: 2006-6-25 20:21
モデレータ
登録日: 2005-6-12
居住地: 日本
投稿: 2661
オンライン
Comet P/1889 M1 = 2006 M3 (Barnard 2)

6月23.26日、LINEARにより小惑星状の天体が発見された。直ちにNEO Confirmation Pageに掲載
され、CCD観測者によって彗星状であることが確かめられた。
L. Buzzi (Schiaparelli天文台、イタリア、0.60-m f/4.6反射+CCD)によると、6月23.97日-
23.99日 UT、良いシーイングでイメージが同等の輝きの星より半値幅(FWHM)で約30%大きく、6″
の円形のコマと強い中央集光がある。
6月24.2日、R. Salvo (Los Molinos、ウルグアイ)の観測や6月24.6日、J. Broughton (Reedy
Creek、Queensland州)の観測から彗星であると示唆した。
暫定軌道の計算から、D. W. E. Green (CfA)はこの彗星は、A. Berberich (1889, A.N. 123, 77)
が計算した最初の中周期軌道(約128年)からP/1889 M1 = 1889 III = 1889c (Barnard 2)の回帰
であることを示唆した。

発見位置は次のとおり、

     2006 UT             R.A. (2000) Decl.      Mag.
     June 23.25870   17 43 38.68   -27 26 53.5  17.1

軌道要素と位置推算表は次のとおり、

Orbital elements:
    P/1889 M1 = 2006 M3 (Barnard)
Epoch 1889 June 7.0 TT = JDT 2411160.5
T 1889 June 21.23440 TT                                 MPC
q   1.1027476            (2000.0)            P               Q
n   0.00839829     Peri.   60.12652     +0.76295409     +0.38703214
a  23.9704117      Node   272.54540     -0.60509305     +0.70945537
e   0.9539955      Incl.   31.21843     +0.22751584     +0.58896451
P 117.36

Epoch 2006 Aug. 13.0 TT = JDT 2453960.5
T 2006 Aug. 28.63949 TT                                 MPC
q   1.1069740            (2000.0)            P               Q
n   0.00823831     Peri.   60.44474     +0.76124837     +0.39020346
a  24.2797443      Node   272.06683     -0.60697584     +0.70985233
e   0.9544075      Incl.   31.21549     +0.22821316     +0.58638803
P 119.64

Ephemeris:
    P/1889 M1 = 2006 M3 (Barnard)
Date    TT    R. A. (2000) Decl.     Delta      r     Elong.  Phase   m1
2006 06 24    17 42.51   -26 43.2    0.488    1.502   173.0     4.8  15.2
2006 06 29    17 34.62   -21 14.0    0.445    1.454   166.9     9.1  14.9
2006 07 04    17 26.58   -14 42.5    0.411    1.406   158.3    15.5  14.5
2006 07 09    17 18.76   -07 15.8    0.386    1.361   148.8    22.7  14.3
2006 07 14    17 11.52   +00 48.8    0.371    1.319   138.9    30.4  14.0
2006 07 19    17 05.14   +09 06.0    0.366    1.279   129.1    38.1  13.9
2006 07 24    16 59.86   +17 09.4    0.369    1.242   119.9    45.2  13.8
2006 07 29    16 55.86   +24 38.5    0.380    1.209   111.7    51.3  13.7
2006 08 03    16 53.22   +31 23.2    0.396    1.179   104.7    56.3  13.7
2006 08 08    16 51.96   +37 21.5    0.416    1.155    99.0    60.2  13.7
2006 08 13    16 52.05   +42 36.6    0.439    1.135    94.4    62.9  13.8
2006 08 18    16 53.50   +47 13.8    0.462    1.120    91.0    64.7  13.8
2006 08 23    16 56.36   +51 18.6    0.486    1.111    88.5    65.5  13.9
2006 08 28    17 00.79   +54 56.7    0.510    1.107    87.0    65.7  14.0
2006 09 02    17 07.01   +58 12.7    0.532    1.109    86.2    65.2  14.1

Computer: Marsden

(CBET 558、MPEC 2006-M38)
スレッド表示 | 新しいものから 前のトピック | 次のトピック | トップ

投稿するにはまず登録を
 
© 1999 Tsutomu Seki.